Location: Unspecified
(0.0000°N, 0.0000°E)
Time: 07:11:52
(UTC+00:00)

Vanguard 1 Rocket - Pass Details

Date: 09 December 2017
Orbit: 656 x 4222 km, 34.3° (Epoch: 15 January)

Event Time Altitude Azimuth Distance (km) Brightness Sun altitude
Rises 22:43:42 0° 318° (NW) 7,438 12.0 -61.6°
Enters shadow 22:48:39 - 326° (NW) 6,866 11.7 -62.3°
Reaches altitude 10° 22:49:14 10° 327° (NNW) 6,803 - -62.4°
Maximum altitude 23:11:26 38° 29° (NNE) 5,404 - -65.0°
Exits shadow 23:31:27 12° 89° (E) 6,460 11.6 -66.5°
Drops below altitude 10° 23:32:17 10° 90° (E) 6,552 11.6 -66.6°
Sets 23:37:17 0° 98° (E) 7,172 12.0 -66.8°
